Weather History for KMMV - August, 2014

Change the Weather History Date:

Thursday, August 21, 2014

  Actual Average Record
Temperature  
Mean Temperature 64 °F 66 °F  
Max Temperature 80 °F 82 °F 99 °F (1951)
Min Temperature 48 °F 50 °F 32 °F (1899)
Degree Days  
Heating Degree Days 1 1  
Month to date heating degree days 1 21  
Since 1 July heating degree days 5 65  
Cooling Degree Days 0 2  
Month to date cooling degree days 154 61  
Year to date cooling degree days 394 161  
Growing Degree Days 14 (Base 50)    
Moisture  
Dew Point 47 °F    
Average Humidity 61    
Maximum Humidity 93    
Minimum Humidity 28    
Precipitation  
Precipitation 0.00 in 0.02 in 1.69 in (1978)
Month to date precipitation 0.01 0.33  
Year to date precipitation 22.51 22.08  
Sea Level Pressure  
Sea Level Pressure 30.01 in    
Wind  
Wind Speed 3 mph (WSW)    
Max Wind Speed 12 mph    
Max Gust Speed 15 mph    
Visibility 10 miles    
Events      
T = Trace of Precipitation, MM = Missing Value Source: NWS Daily Summary

Daily Weather History Graph

Daily Weather History Graph

Search for Another Location

Airport or City:

Trip Planner

Search our weather history database for the weather conditions in past years. The results will help you decide how hot, cold, wet, or windy it might be!

Date:

Astronomy

Aug. 21, 2014 Rise Set
Actual Time 6:21 AM PDT 8:09 PM PDT
Civil Twilight 5:49 AM PDT 8:40 PM PDT
Nautical Twilight 5:11 AM PDT 9:18 PM PDT
Astronomical Twilight 4:29 AM PDT 10:00 PM PDT
Moon 2:51 AM PDT (8/21) 5:45 PM PDT (8/21)
Length of Visible Light 14h 50m
Length of Day
13h 47m
Waning Crescent, 13% of the Moon is Illuminated
Aug 21
Waning Crescent
Aug 25
New
Sep 2
First Quarter
Sep 8
Full
Sep 15
Last Quarter

Hourly Weather History & Observations

Time (PDT) Temp. Dew Point Humidity Pressure Visibility Wind Dir Wind Speed Gust Speed Precip Events Conditions
12:53 AM 57.0 °F 50.0 °F 77% 30.03 in 10.0 mi WNW 5.8 mph - N/A   Clear
1:53 AM 55.9 °F 50.0 °F 80% 30.04 in 10.0 mi WNW 3.5 mph - N/A   Clear
2:53 AM 54.0 °F 48.9 °F 83% 30.04 in 10.0 mi Calm Calm - N/A   Clear
3:53 AM 52.0 °F 48.0 °F 86% 30.05 in 10.0 mi Calm Calm - N/A   Clear
4:53 AM 50.0 °F 48.0 °F 93% 30.05 in 10.0 mi Calm Calm - N/A   Clear
5:53 AM 48.9 °F 46.0 °F 90% 30.05 in 10.0 mi Calm Calm - N/A   Clear
6:53 AM 50.0 °F 46.9 °F 89% 30.06 in 10.0 mi Variable 3.5 mph - N/A   Clear
7:53 AM 53.1 °F 48.9 °F 86% 30.07 in 10.0 mi Calm Calm - N/A   Clear
8:53 AM 57.0 °F 50.0 °F 77% 30.07 in 10.0 mi Calm Calm - N/A   Scattered Clouds
9:53 AM 62.1 °F 50.0 °F 65% 30.07 in 10.0 mi Calm Calm - N/A   Mostly Cloudy
10:53 AM 64.9 °F 50.0 °F 58% 30.06 in 10.0 mi Variable 3.5 mph - N/A   Mostly Cloudy
11:53 AM 68.0 °F 50.0 °F 52% 30.05 in 10.0 mi Calm Calm - N/A   Clear
12:53 PM 72.0 °F 48.0 °F 43% 30.03 in 10.0 mi Variable 4.6 mph - N/A   Scattered Clouds
1:53 PM 75.0 °F 44.1 °F 33% 30.02 in 10.0 mi Variable 3.5 mph - N/A   Scattered Clouds
2:53 PM 78.1 °F 42.1 °F 28% 30.00 in 10.0 mi Calm Calm - N/A   Scattered Clouds
3:53 PM 75.9 °F 42.1 °F 30% 29.98 in 10.0 mi WSW 3.5 mph - N/A   Mostly Cloudy
4:53 PM 80.1 °F 44.1 °F 28% 29.96 in 10.0 mi SSW 5.8 mph - N/A   Mostly Cloudy
5:53 PM 78.1 °F 45.0 °F 31% 29.94 in 10.0 mi NNW 3.5 mph - N/A   Mostly Cloudy
6:53 PM 75.9 °F 51.1 °F 42% 29.94 in 10.0 mi WSW 8.1 mph - N/A   Partly Cloudy
7:53 PM 73.0 °F 46.9 °F 39% 29.94 in 10.0 mi West 5.8 mph - N/A   Mostly Cloudy
8:53 PM 69.1 °F 41.0 °F 36% 29.95 in 10.0 mi WSW 3.5 mph - N/A   Clear
10:53 PM 62.1 °F 46.9 °F 58% 29.96 in 10.0 mi SW 6.9 mph - N/A   Partly Cloudy
11:53 PM 62.1 °F 48.0 °F 60% 29.97 in 10.0 mi SSW 4.6 mph - N/A   Overcast